Pearl River, LA

7:21 AM CST on December 10, 2016 (GMT -0600)
Slidell

Weather History for KASD - December, 2013

Change the Weather History Date:

Saturday, December 28, 2013

  Actual Average (KNEW) Record (KNEW)
Temperature  
Mean Temperature 48 °F -  
Max Temperature 51 °F 60 °F 82 °F (1974)
Min Temperature 44 °F 44 °F 26 °F (1972)
Degree Days  
Heating Degree Days 18    
Moisture  
Dew Point 46 °F    
Average Humidity 93    
Maximum Humidity 100    
Minimum Humidity 66    
Precipitation  
Precipitation 1.55 in - - ()
Sea Level Pressure  
Sea Level Pressure 30.10 in    
Wind  
Wind Speed 7 mph (North)    
Max Wind Speed 14 mph    
Max Gust Speed -    
Visibility 5 miles    
Events Rain    
Averages and records for this station are not official NWS values.
T = Trace of Precipitation, MM = Missing Value Source: NWS Daily Summary

Daily Weather History Graph

Daily Weather History Graph

Search for Another Location

Airport or City:

Trip Planner

Search our weather history database for the weather conditions in past years. The results will help you decide how hot, cold, wet, or windy it might be!

Date:

Astronomy

Dec. 28, 2013 Rise Set
Actual Time 6:54 AM CST 5:07 PM CST
Civil Twilight 6:28 AM CST 5:33 PM CST
Nautical Twilight 5:58 AM CST 6:03 PM CST
Astronomical Twilight 5:29 AM CST 6:33 PM CST
Moon 2:41 AM CST (12/28) 1:50 PM CST (12/28)
Length of Visible Light 11h 05m
Length of Day
10h 12m
Waning Crescent, 19% of the Moon is Illuminated
Dec 28
Waning Crescent
Jan 1
New
Jan 7
First Quarter
Jan 15
Full
Jan 23
Last Quarter

Hourly Weather History & Observations

Time (CST) Temp. Windchill Dew Point Humidity Pressure Visibility Wind Dir Wind Speed Gust Speed Precip Events Conditions
12:53 AM 48.9 °F - 37.9 °F 66% 30.27 in 10.0 mi NNE 5.8 mph - 0.00 in Rain Light Rain
1:53 AM 46.9 °F - 39.9 °F 77% 30.24 in 10.0 mi NNE 6.9 mph - 0.02 in Rain Light Rain
2:53 AM 46.9 °F - 41.0 °F 80% 30.22 in 10.0 mi North 5.8 mph - 0.00 in Rain Light Rain
3:53 AM 46.0 °F 43.9 °F 42.1 °F 86% 30.22 in 5.0 mi North 4.6 mph - 0.04 in Rain Rain
4:53 AM 45.0 °F 43.5 °F 42.1 °F 90% 30.21 in 7.0 mi NNE 3.5 mph - 0.09 in Rain Light Rain
5:53 AM 45.0 °F 40.6 °F 42.1 °F 90% 30.18 in 5.0 mi NNE 8.1 mph - 0.12 in Rain Rain
6:50 AM 44.6 °F 40.2 °F 42.8 °F 93% 30.16 in 5.0 mi NNE 8.1 mph - 0.11 in Rain Light Rain
6:53 AM 45.0 °F 40.6 °F 43.0 °F 93% 30.16 in 5.0 mi NNE 8.1 mph - 0.12 in Rain Light Rain
7:08 AM 45.0 °F 41.8 °F 44.1 °F 97% 30.17 in 3.0 mi North 5.8 mph - 0.04 in Rain Rain
7:16 AM 45.0 °F 42.6 °F 44.1 °F 97% 30.19 in 4.0 mi NW 4.6 mph - 0.05 in Rain Light Rain
7:29 AM 45.0 °F 42.6 °F 44.1 °F 97% 30.19 in 2.0 mi NNW 4.6 mph - 0.12 in Rain Heavy Rain
7:46 AM 45.0 °F 40.6 °F 44.1 °F 97% 30.18 in 2.0 mi North 8.1 mph - 0.23 in Rain Heavy Rain
7:53 AM 45.0 °F 40.1 °F 44.1 °F 97% 30.18 in 2.0 mi North 9.2 mph - 0.25 in Rain Rain
8:53 AM 46.0 °F 41.4 °F 44.1 °F 93% 30.17 in 2.0 mi North 9.2 mph - 0.22 in Rain Rain
9:09 AM 46.0 °F 43.1 °F 44.1 °F 93% 30.19 in 4.0 mi NNW 5.8 mph - 0.03 in Rain Light Rain
9:13 AM 46.0 °F 42.5 °F 44.1 °F 93% 30.19 in 1.8 mi North 6.9 mph - 0.07 in Rain Heavy Rain
9:28 AM 46.0 °F 43.1 °F 44.1 °F 93% 30.20 in 3.0 mi NW 5.8 mph - 0.10 in Rain Rain
9:36 AM 46.0 °F 42.5 °F 44.1 °F 93% 30.19 in 3.0 mi North 6.9 mph - 0.11 in Rain Light Rain
9:46 AM 46.0 °F 41.0 °F 44.1 °F 93% 30.18 in 2.0 mi North 10.4 mph - 0.14 in Rain Rain
9:53 AM 46.0 °F 40.6 °F 44.1 °F 93% 30.17 in 3.0 mi North 11.5 mph - 0.15 in Rain Light Rain
10:02 AM 46.9 °F - 45.0 °F 93% 30.15 in 2.0 mi North 13.8 mph - 0.03 in Rain Heavy Rain
10:19 AM 46.9 °F - 45.0 °F 93% 30.14 in 4.0 mi North 12.7 mph - 0.06 in Rain Rain
10:32 AM 46.9 °F - 45.0 °F 93% 30.14 in 2.5 mi North 11.5 mph - 0.11 in Rain Rain
10:41 AM 46.9 °F - 45.0 °F 93% 30.14 in 3.0 mi North 9.2 mph - 0.13 in Rain Rain
10:53 AM 48.0 °F - 46.0 °F 93% 30.13 in 3.0 mi North 10.4 mph - 0.15 in Rain Rain
11:13 AM 46.9 °F - 46.0 °F 97% 30.13 in 2.5 mi North 9.2 mph - 0.05 in Rain Rain
11:46 AM 48.0 °F - 46.0 °F 93% 30.10 in 4.0 mi North 9.2 mph - 0.10 in Rain Light Rain
11:53 AM 48.0 °F - 46.0 °F 93% 30.09 in 3.0 mi North 11.5 mph - 0.11 in Rain Rain
12:07 PM 48.0 °F - 46.9 °F 96% 30.07 in 2.5 mi North 10.4 mph - 0.03 in Rain Rain
12:22 PM 48.9 °F - 46.9 °F 93% 30.06 in 4.0 mi NNE 10.4 mph - 0.05 in Rain Light Rain
12:37 PM 48.9 °F - 46.9 °F 93% 30.05 in 2.0 mi NNE 10.4 mph - 0.07 in Rain Rain
12:45 PM 48.9 °F - 46.9 °F 93% 30.05 in 1.8 mi NNE 9.2 mph - 0.10 in Rain Rain
12:53 PM 48.9 °F - 46.9 °F 93% 30.04 in 2.0 mi NNE 8.1 mph - 0.11 in Rain Rain
1:02 PM 48.9 °F - 46.9 °F 93% 30.03 in 4.0 mi North 10.4 mph - 0.00 in Rain Light Rain
1:53 PM 50.0 °F - 48.0 °F 93% 30.00 in 3.0 mi NE 10.4 mph - 0.03 in Rain Light Rain
2:53 PM 51.1 °F - 48.9 °F 92% 29.99 in 10.0 mi North 8.1 mph - 0.00 in Rain Light Rain
3:35 PM 50.0 °F - 48.9 °F 96% 30.01 in 2.5 mi North 3.5 mph - 0.04 in Rain Light Rain
3:43 PM 50.0 °F - 48.9 °F 96% 30.00 in 4.0 mi NNW 3.5 mph - 0.04 in Rain Light Rain
3:53 PM 50.0 °F - 48.0 °F 93% 29.97 in 4.0 mi NNE 10.4 mph - 0.06 in Rain Rain
4:53 PM 50.0 °F - 48.0 °F 93% 29.97 in 10.0 mi North 4.6 mph - 0.04 in Rain Light Rain
5:53 PM 50.0 °F - 48.0 °F 93% 30.00 in 10.0 mi NW 4.6 mph - 0.00 in   Overcast
6:53 PM 50.0 °F - 48.0 °F 93% 30.01 in 10.0 mi North 4.6 mph - 0.01 in   Overcast
7:43 PM 48.9 °F - 46.9 °F 93% 30.00 in 10.0 mi NNW 5.8 mph - 0.00 in Rain Light Rain
7:53 PM 48.9 °F - 46.9 °F 93% 29.99 in 10.0 mi North 5.8 mph - 0.00 in Rain Light Rain
8:15 PM 48.9 °F - 46.9 °F 93% 29.99 in 10.0 mi North 4.6 mph - 0.00 in Rain Light Rain
8:53 PM 48.9 °F - 48.0 °F 97% 30.00 in 10.0 mi NW 3.5 mph - 0.00 in Rain Light Rain
9:23 PM 50.0 °F - 48.0 °F 93% 30.00 in 10.0 mi NNW 3.5 mph - 0.00 in Rain Light Rain
9:49 PM 48.2 °F - 48.2 °F 100% 30.00 in 10.0 mi NW 3.5 mph - 0.01 in Rain Light Rain
9:53 PM 48.9 °F - 48.0 °F 97% 30.00 in 10.0 mi Calm Calm - 0.01 in Rain Light Rain
10:53 PM 48.9 °F - 48.0 °F 97% 29.99 in 10.0 mi Calm Calm - 0.02 in Rain Light Rain
11:53 PM 48.9 °F - 48.0 °F 97% 29.98 in 10.0 mi East 3.5 mph - 0.00 in   Overcast